sat.trackr.live / text

‹ back to catalog

GLOBALSTAR M082

NORAD 38042 · 2011-080C

PAYLOAD ACTIVE UNKNOWN

§ Identity

Operator
Country
GLOB
Launch date
2011-12-28
Launch site
TYMSC
Launch vehicle
Mass (kg)
RCS (m²)
4.69

Purposes: comms

External: N2YO · Heavens-Above · Gunter

§ Orbital elements

Epoch: 2026-09-19T17:04:01.093728Z

Period
114.08 min
Inclination
52.0084°
Eccentricity
0.0000901
Mean motion
12.62262798 rev/d
Perigee alt
1,412.9 km
Apogee alt
1,414.3 km
Semi-major
7,791.8 km
B*
-1.0050e-5
RAAN
46.7770°
Arg perigee
112.4178°
Mean anomaly
260.9345°
Rev number
68,153

§ Raw data

GLOBALSTAR M0821 38042U 11080C   26262.71112377 -.00000106  00000+0 -10050-4 0  99922 38042  52.0084  46.7770 0000901 112.4178 260.9345 12.62262798681530

JSON: /api/v1/satellites/38042 · /tle

For live sub-satellite position, see the globe view (requires WebGL).

§ Visibility from observer

Set your observer location to see the next 7 days of passes ≥ 10°. The values pass through the URL so the page stays shareable.

No JS? Fill the form by hand. The geolocation button needs JavaScript.